CTJ3699 ZGOW-ZHCC

Flight info

Callsign CTJ3699
Flight time N/A
Altitude 30100
Route P319 R200 GUBLO W22 SHL A461 BUBDA W56 IGMIG
Aircraft B738/M-SDE2E3FGHIRWXY/LB1

Departure

Time N/A
Airport Jieyang Chaoshan International Airport (ZGOW)

Arrival

Time 2026-04-25 10:56
Airport Zhengzhou Xinzheng International Airport (ZHCC)
Time Latitude Longitude Altitude Speed Heading
2026-04-25 09:49 28.65656 113.49290 30100 ft 443 kts 358°
2026-04-25 09:49 28.68731 113.49511 30098 ft 442 kts 358°
2026-04-25 09:50 28.74826 113.49948 30100 ft 441 kts 358°
2026-04-25 09:50 28.80951 113.50387 30098 ft 440 kts 358°
2026-04-25 09:51 28.87057 113.50827 30097 ft 439 kts 358°
2026-04-25 09:51 28.93152 113.51266 30091 ft 438 kts 358°
2026-04-25 09:52 28.99227 113.51704 30087 ft 437 kts 358°
2026-04-25 09:52 29.05294 113.52141 30099 ft 437 kts 358°
2026-04-25 09:53 29.11360 113.52579 30097 ft 437 kts 359°
2026-04-25 09:53 29.17423 113.53016 30093 ft 436 kts 359°
2026-04-25 09:54 29.23485 113.53454 30092 ft 436 kts 359°
2026-04-25 09:54 29.29492 113.53891 30095 ft 435 kts 359°
2026-04-25 09:55 29.35537 113.54404 30091 ft 436 kts
2026-04-25 09:55 29.41584 113.54941 30088 ft 436 kts
2026-04-25 09:56 29.47628 113.55472 30083 ft 435 kts
2026-04-25 09:56 29.53665 113.55997 30082 ft 434 kts
2026-04-25 09:57 29.59688 113.56520 30081 ft 434 kts
2026-04-25 09:57 29.65694 113.57042 30077 ft 432 kts
2026-04-25 09:58 29.71683 113.57564 30083 ft 431 kts
2026-04-25 09:58 29.77651 113.58084 30082 ft 430 kts
2026-04-25 09:59 29.83603 113.58603 30088 ft 428 kts
2026-04-25 09:59 29.89499 113.59118 30080 ft 427 kts
2026-04-25 10:00 29.95380 113.60122 30078 ft 430 kts 12°
2026-04-25 10:00 30.00974 113.62674 30085 ft 433 kts 19°
2026-04-25 10:01 30.06480 113.65480 30086 ft 432 kts 19°
2026-04-25 10:01 30.11983 113.68259 30100 ft 432 kts 19°
2026-04-25 10:02 30.17493 113.71019 30087 ft 432 kts 19°
2026-04-25 10:02 30.23016 113.73781 30085 ft 433 kts 19°
2026-04-25 10:03 30.28545 113.76549 30085 ft 433 kts 19°
2026-04-25 10:03 30.34065 113.79317 30084 ft 432 kts 19°
2026-04-25 10:04 30.39579 113.82086 30087 ft 432 kts 19°
2026-04-25 10:04 30.45079 113.84851 30084 ft 431 kts 19°
2026-04-25 10:05 30.50583 113.87621 30085 ft 430 kts 20°
2026-04-25 10:05 30.56064 113.90383 30085 ft 430 kts 20°
2026-04-25 10:06 30.61560 113.93156 30078 ft 430 kts 20°
2026-04-25 10:06 30.65199 113.94979 30077 ft 429 kts 19°
2026-04-25 10:07 30.72555 113.98620 30075 ft 431 kts 22°
2026-04-25 10:07 30.77284 114.01331 30075 ft 432 kts 22°
2026-04-25 10:08 30.82664 114.04317 30074 ft 431 kts 21°
2026-04-25 10:08 30.88116 114.07236 30073 ft 432 kts 21°
2026-04-25 10:09 30.93567 114.10175 30071 ft 432 kts 21°
2026-04-25 10:09 30.99055 114.13154 30075 ft 433 kts 21°
2026-04-25 10:10 31.04477 114.16101 30084 ft 433 kts 21°
2026-04-25 10:10 31.09941 114.19071 30088 ft 433 kts 21°
2026-04-25 10:11 31.15409 114.22046 30083 ft 434 kts 21°
2026-04-25 10:11 31.20885 114.25030 30091 ft 434 kts 21°
2026-04-25 10:12 31.26360 114.28018 30086 ft 435 kts 21°
2026-04-25 10:13 31.34651 114.32275 30092 ft 431 kts 13°
2026-04-25 10:13 31.40520 114.33414 30093 ft 426 kts 360°
2026-04-25 10:14 31.46453 114.33505 30094 ft 427 kts 359°
2026-04-25 10:14 31.52390 114.33655 30094 ft 427 kts
2026-04-25 10:15 31.58328 114.33834 30089 ft 427 kts
2026-04-25 10:15 31.64265 114.34010 30093 ft 427 kts
2026-04-25 10:16 31.70206 114.34184 30100 ft 427 kts
2026-04-25 10:16 31.76150 114.34361 29937 ft 430 kts
2026-04-25 10:16 31.79151 114.34453 29469 ft 432 kts
2026-04-25 10:17 31.82150 114.34546 29025 ft 430 kts
2026-04-25 10:17 31.85143 114.34637 28598 ft 432 kts
2026-04-25 10:17 31.88157 114.34728 28174 ft 434 kts
2026-04-25 10:17 31.91178 114.34819 27749 ft 435 kts
2026-04-25 10:18 31.94214 114.34911 27341 ft 436 kts
2026-04-25 10:18 31.97253 114.35002 26933 ft 437 kts
2026-04-25 10:18 32.00257 114.35093 26629 ft 439 kts
2026-04-25 10:18 32.03314 114.35185 26606 ft 442 kts
2026-04-25 10:19 32.06396 114.35278 26585 ft 443 kts
2026-04-25 10:19 32.09473 114.35371 26577 ft 442 kts
2026-04-25 10:19 32.12543 114.35464 26576 ft 441 kts
2026-04-25 10:19 32.15607 114.35557 26578 ft 440 kts
2026-04-25 10:20 32.18671 114.35650 26582 ft 440 kts
2026-04-25 10:20 32.21731 114.35742 26585 ft 440 kts
2026-04-25 10:20 32.24785 114.35835 26584 ft 440 kts
2026-04-25 10:20 32.27849 114.35975 26579 ft 440 kts
2026-04-25 10:21 32.30903 114.36256 26584 ft 441 kts
2026-04-25 10:21 32.33962 114.36573 26587 ft 441 kts
2026-04-25 10:21 32.37024 114.36878 26585 ft 442 kts
2026-04-25 10:21 32.40086 114.37170 26584 ft 442 kts
2026-04-25 10:22 32.43158 114.37454 26585 ft 442 kts
2026-04-25 10:22 32.46227 114.37734 26584 ft 443 kts
2026-04-25 10:22 32.49302 114.38013 26583 ft 443 kts
2026-04-25 10:22 32.52375 114.38293 26583 ft 444 kts
2026-04-25 10:23 32.55457 114.38575 26583 ft 444 kts
2026-04-25 10:23 32.58537 114.38857 26584 ft 444 kts
2026-04-25 10:23 32.61616 114.39184 26583 ft 444 kts
2026-04-25 10:23 32.64693 114.39469 26592 ft 444 kts
2026-04-25 10:24 32.67778 114.39714 26585 ft 445 kts
2026-04-25 10:24 32.70869 114.39987 26582 ft 445 kts
2026-04-25 10:24 32.73960 114.40274 26586 ft 446 kts
2026-04-25 10:24 32.77009 114.40562 26586 ft 446 kts
2026-04-25 10:25 32.80103 114.40855 26584 ft 446 kts
2026-04-25 10:25 32.83200 114.41147 26586 ft 447 kts
2026-04-25 10:25 32.86299 114.41439 26585 ft 447 kts
2026-04-25 10:25 32.89400 114.41729 26586 ft 447 kts
2026-04-25 10:26 32.92508 114.42020 26501 ft 448 kts
2026-04-25 10:26 32.95623 114.42311 25964 ft 449 kts
2026-04-25 10:26 32.98734 114.42602 25481 ft 448 kts
2026-04-25 10:26 33.01834 114.42893 25007 ft 446 kts
2026-04-25 10:27 33.04914 114.43182 24537 ft 444 kts
2026-04-25 10:27 33.07993 114.43470 24072 ft 443 kts
2026-04-25 10:27 33.11064 114.43758 23614 ft 441 kts
2026-04-25 10:27 33.14122 114.44045 23094 ft 440 kts
2026-04-25 10:28 33.17170 114.44331 22553 ft 439 kts
2026-04-25 10:28 33.20201 114.44616 22032 ft 436 kts
2026-04-25 10:28 33.23212 114.44546 21487 ft 431 kts 348°
2026-04-25 10:28 33.26031 114.43424 20995 ft 426 kts 333°
2026-04-25 10:29 33.28474 114.41450 20501 ft 423 kts 319°
2026-04-25 10:29 33.30472 114.38886 20012 ft 422 kts 307°
2026-04-25 10:29 33.31873 114.35814 19528 ft 422 kts 294°
2026-04-25 10:29 33.32864 114.32532 19066 ft 419 kts 291°
2026-04-25 10:30 33.33830 114.29254 18584 ft 417 kts 291°
2026-04-25 10:30 33.34483 114.27097 18279 ft 415 kts 292°
2026-04-25 10:30 33.36176 114.23013 17542 ft 405 kts 310°
2026-04-25 10:30 33.38187 114.20722 17035 ft 395 kts 324°
2026-04-25 10:31 33.40542 114.19127 16518 ft 387 kts 338°
2026-04-25 10:31 33.43089 114.18192 16031 ft 379 kts 345°
2026-04-25 10:31 33.45631 114.17422 15536 ft 374 kts 346°
2026-04-25 10:31 33.48135 114.16692 15040 ft 368 kts 346°
2026-04-25 10:32 33.50609 114.15967 14558 ft 363 kts 346°
2026-04-25 10:32 33.53050 114.15238 14087 ft 359 kts 345°
2026-04-25 10:32 33.55460 114.14507 13596 ft 355 kts 345°
2026-04-25 10:32 33.57842 114.13777 13077 ft 352 kts 345°
2026-04-25 10:33 33.60207 114.13047 12568 ft 349 kts 345°
2026-04-25 10:33 33.62550 114.12320 12058 ft 347 kts 345°
2026-04-25 10:33 33.64882 114.11595 11847 ft 347 kts 345°
2026-04-25 10:33 33.67220 114.10867 11797 ft 348 kts 345°
2026-04-25 10:34 33.69560 114.10139 11778 ft 346 kts 345°
2026-04-25 10:34 33.71892 114.09413 11777 ft 346 kts 345°
2026-04-25 10:34 33.74228 114.08684 11775 ft 347 kts 345°
2026-04-25 10:34 33.76561 114.07957 11776 ft 347 kts 345°
2026-04-25 10:35 33.78904 114.07226 11781 ft 347 kts 345°
2026-04-25 10:35 33.83324 114.05846 11775 ft 347 kts 345°
2026-04-25 10:35 33.85661 114.05116 11773 ft 347 kts 345°
2026-04-25 10:36 33.87998 114.04386 11772 ft 347 kts 345°
2026-04-25 10:36 33.90333 114.03648 11771 ft 347 kts 345°
2026-04-25 10:36 33.92667 114.02903 11773 ft 347 kts 344°
2026-04-25 10:36 33.94999 114.02158 11774 ft 347 kts 344°
2026-04-25 10:37 33.97331 114.01412 11772 ft 347 kts 344°
2026-04-25 10:37 33.99665 114.00665 11770 ft 347 kts 344°
2026-04-25 10:37 34.01969 113.99928 11714 ft 337 kts 344°
2026-04-25 10:37 34.04196 113.99216 11637 ft 325 kts 345°
2026-04-25 10:38 34.05568 113.98777 11570 ft 317 kts 344°
2026-04-25 10:38 34.05643 113.98753 11568 ft 316 kts 344°
2026-04-25 10:39 34.09817 113.97417 11407 ft 293 kts 344°
2026-04-25 10:39 34.11756 113.96795 11236 ft 286 kts 344°
2026-04-25 10:39 34.13673 113.96180 10922 ft 284 kts 344°
2026-04-25 10:40 34.15582 113.95566 10583 ft 285 kts 344°
2026-04-25 10:40 34.17496 113.94952 10267 ft 284 kts 344°
2026-04-25 10:40 34.19401 113.94340 9963 ft 283 kts 344°
2026-04-25 10:40 34.20659 113.93935 9749 ft 282 kts 344°
2026-04-25 10:41 34.23193 113.93120 9292 ft 282 kts 344°
2026-04-25 10:41 34.25083 113.92512 8959 ft 281 kts 344°
2026-04-25 10:41 34.26970 113.91905 8624 ft 280 kts 343°
2026-04-25 10:41 34.28850 113.91298 8298 ft 280 kts 343°
2026-04-25 10:42 34.30731 113.90693 7984 ft 280 kts 343°
2026-04-25 10:42 34.32622 113.90083 7920 ft 283 kts 343°
2026-04-25 10:42 34.34522 113.89470 7897 ft 281 kts 343°
2026-04-25 10:42 34.36408 113.88863 7892 ft 280 kts 343°
2026-04-25 10:43 34.38197 113.87990 7883 ft 278 kts 323°
2026-04-25 10:43 34.39507 113.86297 7895 ft 276 kts 299°
2026-04-25 10:43 34.40298 113.84194 7821 ft 274 kts 291°
2026-04-25 10:43 34.40756 113.82773 7675 ft 273 kts 290°
2026-04-25 10:44 34.41675 113.79913 7221 ft 274 kts 290°
2026-04-25 10:44 34.42141 113.78486 6980 ft 275 kts 290°
2026-04-25 10:44 34.42846 113.76343 6710 ft 273 kts 290°
2026-04-25 10:44 34.43546 113.74220 6417 ft 272 kts 290°
2026-04-25 10:45 34.44252 113.72086 6088 ft 272 kts 290°
2026-04-25 10:45 34.44953 113.69966 5775 ft 271 kts 290°
2026-04-25 10:45 34.45652 113.67853 5468 ft 270 kts 289°
2026-04-25 10:45 34.46350 113.65743 5172 ft 269 kts 289°
2026-04-25 10:46 34.47269 113.62962 4801 ft 268 kts 289°
2026-04-25 10:46 34.47736 113.61548 4569 ft 268 kts 289°
2026-04-25 10:46 34.48460 113.59458 4246 ft 269 kts 290°
2026-04-25 10:46 34.49211 113.57384 3945 ft 269 kts 290°
2026-04-25 10:47 34.49963 113.55310 3912 ft 269 kts 290°
2026-04-25 10:47 34.50714 113.53227 3895 ft 269 kts 290°
2026-04-25 10:47 34.51459 113.51155 3883 ft 267 kts 291°
2026-04-25 10:47 34.52184 113.49142 3892 ft 252 kts 290°
2026-04-25 10:48 34.53057 113.47415 3860 ft 240 kts 314°
2026-04-25 10:48 34.54494 113.46537 3856 ft 225 kts 353°
2026-04-25 10:48 34.55956 113.46721 3885 ft 210 kts 19°
2026-04-25 10:48 34.57304 113.47359 3888 ft 206 kts 24°
2026-04-25 10:49 34.58602 113.48044 3687 ft 202 kts 24°
2026-04-25 10:49 34.59904 113.48726 3275 ft 205 kts 24°
2026-04-25 10:49 34.61213 113.49435 2951 ft 205 kts 32°
2026-04-25 10:49 34.62206 113.50633 2892 ft 202 kts 65°
2026-04-25 10:50 34.62554 113.52204 2884 ft 188 kts 95°
2026-04-25 10:50 34.62245 113.53689 2900 ft 182 kts 118°
2026-04-25 10:50 34.61751 113.55136 2884 ft 185 kts 115°
2026-04-25 10:50 34.61281 113.56582 2898 ft 183 kts 117°
2026-04-25 10:51 34.60800 113.58019 2893 ft 184 kts 117°
2026-04-25 10:51 34.60310 113.59456 2881 ft 184 kts 117°
2026-04-25 10:51 34.59826 113.60889 2872 ft 182 kts 117°
2026-04-25 10:51 34.59345 113.62303 2888 ft 181 kts 118°
2026-04-25 10:52 34.58856 113.63733 2900 ft 189 kts 118°
2026-04-25 10:52 34.58351 113.65217 2893 ft 190 kts 118°
2026-04-25 10:52 34.57854 113.66679 2886 ft 185 kts 117°
2026-04-25 10:52 34.57369 113.68110 2868 ft 182 kts 118°
2026-04-25 10:53 34.56875 113.69558 2706 ft 189 kts 117°
2026-04-25 10:53 34.56370 113.71047 2460 ft 190 kts 117°
2026-04-25 10:53 34.55873 113.72511 2208 ft 184 kts 118°
2026-04-25 10:53 34.55404 113.73897 2002 ft 168 kts 119°
2026-04-25 10:54 34.54983 113.75139 1772 ft 150 kts 119°
2026-04-25 10:54 34.54734 113.75873 1658 ft 137 kts 119°
2026-04-25 10:54 34.54263 113.77257 1403 ft 133 kts 118°
2026-04-25 10:54 34.53916 113.78295 1233 ft 132 kts 117°
2026-04-25 10:55 34.53564 113.79342 1080 ft 138 kts 115°
2026-04-25 10:55 34.53192 113.80424 913 ft 141 kts 114°
2026-04-25 10:55 34.52824 113.81522 717 ft 139 kts 114°
2026-04-25 10:55 34.52462 113.82578 518 ft 133 kts 114°
2026-04-25 10:56 34.52144 113.83506 500 ft 101 kts 113°
2026-04-25 10:56 34.51944 113.84100 499 ft 36 kts 111°
2026-04-25 10:56 34.51912 113.84309 499 ft 12 kts 91°
2026-04-25 10:56 34.51916 113.84409 501 ft 12 kts 84°
2026-04-25 10:57 34.51923 113.84505 503 ft 11 kts 85°
2026-04-25 10:57 34.51965 113.84570 504 ft 11 kts 11°
2026-04-25 10:57 34.51997 113.84583 504 ft 0 kts 19°